Location: Burtsch�tz
(51.0528°N, 12.1764°E)
Time: 01:49:58
(UTC+00:00)

S3M - Pass Details

Date: 29 October 2020
Orbit: 950 x 1003 km, 83.0° (Epoch: 23 November)

Event Time Altitude Azimuth Distance (km) Brightness Sun altitude
Rises 17:14:26 0° 170° (S) 3,612 6.9 -13.7°
Reaches altitude 10° 17:16:57 10° 166° (SSE) 2,674 6.2 -14.1°
Maximum altitude 17:22:51 52° 91° (E) 1,174 4.1 -15.0°
Drops below altitude 10° 17:28:50 10° 17° (NNE) 2,717 6.1 -16.0°
Sets 17:31:24 0° 13° (NNE) 3,676 6.9 -16.4°
